sat.trackr.live / text

‹ back to catalog

KUIPER-00181

NORAD 67137 · 2025-301E

PAYLOAD ACTIVE UNKNOWN

§ Identity

Operator
Country
US
Launch date
2025-12-16
Launch site
AFETR
Launch vehicle
Mass (kg)
RCS (m²)

External: N2YO · Heavens-Above · Gunter

§ Orbital elements

Epoch: 2026-05-25T02:57:14.888736Z

Period
97.30 min
Inclination
51.9017°
Eccentricity
0.0001609
Mean motion
14.79954052 rev/d
Perigee alt
628.3 km
Apogee alt
630.6 km
Semi-major
7,007.6 km
B*
3.9525e-4
RAAN
100.1266°
Arg perigee
78.7389°
Mean anomaly
281.3755°
Rev number
2,503

§ Raw data

KUIPER-001811 67137U 25301E   26145.12308899  .00002794  00000+0  39525-3 0  99912 67137  51.9017 100.1266 0001609  78.7389 281.3755 14.79954052 25030

JSON: /api/v1/satellites/67137 · /tle

For live sub-satellite position, see the globe view (requires WebGL).

§ Visibility from observer

Set your observer location to see the next 7 days of passes ≥ 10°. The values pass through the URL so the page stays shareable.

No JS? Fill the form by hand. The geolocation button needs JavaScript.